Atqasuk Edward Burnell Sr Mem, AK

3:08 PM AKDT on October 23, 2019 (GMT -0800)
Atqasuk Edward Burnell Sr Mem

Weather History for PATQ - May, 2019

Change the Weather History Date:

Sunday, May 12, 2019

  Actual Average (WUND) Record (WUND)
Temperature  
Mean Temperature 27 °F -  
Max Temperature 35 °F - - (-1)
Min Temperature 19 °F - - (-1)
Degree Days  
Heating Degree Days 38    
Moisture  
Dew Point 22 °F    
Average Humidity 89    
Maximum Humidity 100    
Minimum Humidity 64    
Precipitation  
Precipitation 0.00 in - - ()
Sea Level Pressure  
Sea Level Pressure 29.86 in    
Wind  
Wind Speed 6 mph (ESE)    
Max Wind Speed 8 mph    
Max Gust Speed -    
Visibility 8 miles    
Events Fog , Snow    
Averages and records for this station are not official NWS values.
T = Trace of Precipitation, MM = Missing Value Source: NWS Daily Summary

Daily Weather History Graph

Daily Weather History Graph

Search for Another Location

Airport or City:

Astronomy

May. 12, 2019 Rise Set
Actual Time 3:23 AM AKDT 1:41 AM AKDT
Civil Twilight Sun does not rise Sun does not rise
Nautical Twilight Sun does not rise Sun does not rise
Astronomical Twilight Sun does not rise Sun does not rise
Moon 12:38 PM AKDT (5/12) 6:28 AM AKDT (5/12)
Length of Visible Light 24h 00m
Length of Day
22h 17m
First Quarter, 59% of the Moon is Illuminated
May 12
First Quarter
May 18
Full
May 26
Last Quarter
Jun 3
New
Jun 9
First Quarter

Hourly Weather History & Observations

Time (AKDT) Temp. Windchill Dew Point Humidity Pressure Visibility Wind Dir Wind Speed Gust Speed Precip Events Conditions
12:56 AM 21.0 °F 13.4 °F 19.0 °F 92% 29.81 in 10.0 mi NE 5.8 mph - N/A   Clear
1:53 AM 21.2 °F 13.6 °F 19.4 °F 93% 29.79 in 7.0 mi ENE 5.8 mph - N/A   Mostly Cloudy
1:54 AM 21.9 °F 14.5 °F 19.9 °F 92% 29.82 in 7.0 mi ENE 5.8 mph - N/A   Mostly Cloudy
2:07 AM 21.2 °F 13.6 °F 19.4 °F 93% 29.79 in 10.0 mi ENE 5.8 mph - N/A   Scattered Clouds
2:44 AM 21.2 °F 13.6 °F 19.4 °F 93% 29.80 in 2.5 mi SE 5.8 mph - N/A   Mostly Cloudy
2:49 AM 21.2 °F 11.7 °F 19.4 °F 93% 29.80 in 1.0 mi SSE 8.1 mph - 0.00 in Snow Light Snow
2:52 AM 21.2 °F 11.7 °F 21.2 °F 100% 29.80 in 0.8 mi SSE 8.1 mph - 0.00 in Snow Light Snow
2:56 AM 21.9 °F 12.5 °F 21.0 °F 96% 29.82 in 0.5 mi SSE 8.1 mph - 0.00 in Fog , Snow Light Snow
3:08 AM 21.2 °F 13.6 °F 21.2 °F 100% 29.80 in 1.0 mi SE 5.8 mph - 0.00 in Snow Light Snow
3:11 AM 21.2 °F 14.9 °F 21.2 °F 100% 29.80 in 2.0 mi SE 4.6 mph - 0.00 in   Overcast
3:14 AM 21.2 °F 14.9 °F 21.2 °F 100% 29.80 in 4.0 mi SE 4.6 mph - 0.00 in   Overcast
3:35 AM 21.2 °F 16.4 °F 19.4 °F 93% 29.80 in 10.0 mi SE 3.5 mph - 0.00 in   Scattered Clouds
3:56 AM 21.0 °F 16.2 °F 19.0 °F 92% 29.83 in 10.0 mi SE 3.5 mph - 0.00 in   Clear
4:40 AM 19.4 °F 14.3 °F 19.4 °F 100% 29.81 in 6.0 mi ESE 3.5 mph - 0.00 in Snow Light Snow
4:56 AM 19.9 °F 14.9 °F 19.0 °F 96% 29.83 in 9.0 mi ESE 3.5 mph - 0.00 in Snow Light Snow
5:56 AM 19.9 °F 13.4 °F 19.0 °F 96% 29.84 in 10.0 mi ESE 4.6 mph - 0.00 in   Clear
6:56 AM 21.0 °F 14.6 °F 19.9 °F 96% 29.84 in 10.0 mi ESE 4.6 mph - N/A   Clear
7:56 AM 21.9 °F 15.7 °F 19.9 °F 92% 29.85 in 10.0 mi SE 4.6 mph - N/A   Clear
8:56 AM 25.0 °F 19.3 °F 21.9 °F 88% 29.86 in 10.0 mi SE 4.6 mph - N/A   Clear
9:56 AM 26.1 °F 19.4 °F 21.0 °F 81% 29.87 in 10.0 mi SE 5.8 mph - N/A   Clear
10:56 AM 30.0 °F 23.2 °F 23.0 °F 75% 29.87 in 10.0 mi SE 6.9 mph - N/A   Scattered Clouds
11:26 AM 30.2 °F 23.4 °F 23.0 °F 75% 29.85 in 1.2 mi SSE 6.9 mph - 0.00 in   Mostly Cloudy
11:34 AM 28.4 °F 22.2 °F 23.0 °F 80% 29.86 in 7.0 mi SE 5.8 mph - 0.00 in   Mostly Cloudy
11:41 AM 30.2 °F 24.3 °F 23.0 °F 75% 29.86 in 10.0 mi SE 5.8 mph - 0.00 in   Scattered Clouds
11:56 AM 30.0 °F 24.1 °F 24.1 °F 79% 29.88 in 10.0 mi SSE 5.8 mph - 0.00 in   Partly Cloudy
12:56 PM 30.9 °F 26.2 °F 23.0 °F 72% 29.89 in 10.0 mi SSE 4.6 mph - N/A   Clear
1:56 PM 35.1 °F 31.0 °F 24.1 °F 64% 29.90 in 10.0 mi SSE 4.6 mph - N/A   Clear
2:56 PM 30.0 °F 25.2 °F 25.0 °F 82% 29.91 in 10.0 mi SSE 4.6 mph - N/A   Clear
3:56 PM 28.9 °F 23.9 °F 25.0 °F 85% 29.91 in 10.0 mi SE 4.6 mph - N/A   Clear
4:56 PM 30.0 °F 26.5 °F 26.1 °F 85% 29.92 in 10.0 mi ESE 3.5 mph - N/A   Clear
5:56 PM 30.0 °F 23.2 °F 26.1 °F 85% 29.93 in 10.0 mi East 6.9 mph - N/A   Clear
6:56 PM 30.0 °F 24.1 °F 27.0 °F 88% 29.94 in 10.0 mi ESE 5.8 mph - N/A   Clear
7:56 PM 30.0 °F 24.1 °F 28.0 °F 92% 29.93 in 10.0 mi ESE 5.8 mph - N/A   Clear
8:56 PM 30.9 °F 26.2 °F 28.0 °F 89% 29.94 in 10.0 mi ENE 4.6 mph - N/A   Clear
9:56 PM 33.1 °F 26.9 °F 28.0 °F 82% 29.94 in 10.0 mi ENE 6.9 mph - N/A   Clear
10:56 PM 28.9 °F 21.9 °F 27.0 °F 92% 29.95 in 10.0 mi East 6.9 mph - N/A   Clear
11:56 PM 28.9 °F 22.8 °F 27.0 °F 92% 29.96 in 10.0 mi East 5.8 mph - N/A   Clear